Location: Alta
(39.2070°N, 120.8111°W)
Time: 07:09:07
(UTC+00:00)

CZ-4B DEB - Pass Details

Date: 06 December 2023
Orbit: 838 x 858 km, 99.0° (Epoch: 02 March)

Event Time Altitude Azimuth Distance (km) Brightness Sun altitude
Rises 03:16:01 0° 172° (S) 3,409 7.3 -29.5°
Reaches altitude 10° 03:18:24 10° 175° (S) 2,480 6.6 -29.9°
Enters shadow 03:19:18 15° 176° (S) 2,135 6.3 -30.1°
Exits shadow 03:24:07 67° 274° (W) 931 4.5 -31.0°
Drops below altitude 10° 03:29:25 10° 341° (NNW) 2,501 6.8 -32.1°
Sets 03:31:49 0° 344° (NNW) 3,441 7.5 -32.5°
